Flag for Germany Weather past 2 weeks in Marburg, Hesse, Germany

Now
25 °F

Overcast.


Feels Like: 15 °F
Forecast: 16 / 36 °F
Wind: 9 mph from Northeast

Location: Giessen

Current Time: Dec 28, 2014 at 4:14:47 AM

Latest Report: Dec 28, 2014 at 4:00 AM


Visibility: 12 mi

Pressure: 29.84 "Hg

Humidity: 78%

Dew point: 19 °F

Location of MarburgLocation

Historic Weather in Marburg — Graph

°F

Marburg temperature yesterday

Maximum temperature yesterday: 33 °F (at 6:00 AM)
Minimum temperature yesterday: 28 °F (at 11:00 PM)
Average temperature yesterday: 31 °F

Past Weeks' High & Low Weather Summary

 TemperatureHumidityPressure
High54 °F (Dec 18, 9:00 PM)100% (Dec 13, 4:00 PM)30.45 "Hg (Dec 13, 4:00 PM)
Low26 °F (Dec 28, 3:00 AM)72% (Dec 26, 1:00 PM)29.47 "Hg (Dec 27, 2:00 PM)
Average40 °F92%30.05 "Hg
* Reported Dec 13 3:00 AM — Dec 28 3:00 AM, Marburg, Weather by CustomWeather, © 2014

Note: Actual official high and low records may vary slightly from our data, if they occured in-between our weather recording intervals... More about our weather records

Advertising

Marburg weather history for previous 24 hours

 ConditionsComfort  
Time TempWeatherWind HumidityBarometerVisibility
3:00 AM
Dec 28
26 °FOvercast.10 mph81%29.80 "Hg11 mi
2:00 AM26 °FOvercast.10 mph81%29.75 "Hg10 mi
1:00 AM27 °FOvercast.9 mph84%29.73 "Hg11 mi
12:00 AM27 °FOvercast.8 mph84%29.70 "Hg10 mi
11:00 PM
Dec 27
28 °FLow clouds.8 mph85%29.67 "Hg11 mi
10:00 PM28 °FOvercast.9 mph82%29.63 "Hg11 mi
9:00 PM28 °FOvercast.8 mph88%29.59 "Hg11 mi
8:00 PM29 °FLow clouds.8 mph99%29.57 "Hg11 mi
7:00 PM29 °FLight snow. Low clouds.7 mph100%29.54 "Hg2 mi
6:00 PM29 °FLight snow. Low clouds.6 mph100%29.50 "Hg6 mi
5:00 PM29 °FLight snow. Low clouds.7 mph100%29.50 "Hg2 mi
4:00 PM30 °FSnow. Low clouds.5 mph100%29.50 "Hg1 mi
3:00 PM31 °FSnow. Low clouds.6 mph100%29.47 "Hg2 mi
2:00 PM31 °FSnow. Low clouds.6 mph100%29.47 "Hg1 mi
1:00 PM32 °FLight snow. Low clouds.7 mph100%29.50 "Hg2 mi
12:00 PM31 °FSnow. Low clouds.7 mph100%29.54 "Hg1 mi
11:00 AM31 °FSnow. Low clouds.6 mph100%29.58 "Hg1 mi
10:00 AM31 °FSnow. Low clouds.7 mph100%29.62 "Hg1 mi
9:00 AM31 °FSnow. Low clouds.7 mph100%29.65 "Hg1 mi
8:00 AM32 °FSnow. Low clouds.6 mph100%29.70 "Hg1 mi
7:00 AM32 °FLight snow. Low clouds.5 mph100%29.76 "Hg1 mi
6:00 AM33 °FLow clouds.6 mph92%29.83 "Hg8 mi
5:00 AM33 °FLow clouds.5 mph96%29.90 "Hg7 mi
4:00 AM33 °FFog.5 mph100%29.97 "Hg4 mi
Weather by CustomWeather, © 2014

See weather overviewHow to use our weather pages